Santuari del Coll - Susqueda





Hora UTC 06:00
Temperatura 1.5 ºC
Humitat 91.0 %
Pressió 1014.7 hPa
Pluja 0.0 mm
Velocitat vent 0.0 km/h
Direcció vent ENE

Dades diàries 2022-12-01



Hora UTC (hivern +1h; estiu +2h)
Temperatura (ºC) Humitat (%) Pressió (hPa) Velocitat vent (km/h) Precipitació (mm)
Hora UTC Aire Humitat Pressió Vel. Dir. Vel. Max Dir. Intent. màx 5 min.
00:05 4.1 92.0 1015.5 0.0 SW 0.0 0.0
00:10 4.1 91.0 1015.5 0.0 SW 0.0 0.0
00:15 4.1 91.0 1015.5 0.0 SW 0.0 0.0
00:20 4.1 91.0 1015.4 0.0 SW 0.0 0.0
00:25 4.1 91.0 1015.5 0.0 SSE 4.8 0.0
00:30 4.0 91.0 1015.4 1.6 S 4.8 0.0
00:35 4.0 91.0 1015.3 4.8 WSW 6.4 0.0
00:40 3.9 91.0 1015.4 0.0 W 9.7 0.0
00:45 3.9 91.0 1015.3 1.6 SW 6.4 0.0
00:50 3.9 91.0 1015.3 0.0 SW 3.2 0.0
00:55 3.8 91.0 1015.3 0.0 SW 3.2 0.0
01:00 3.8 91.0 1015.3 0.0 SW 3.2 0.0
01:05 3.8 91.0 1015.3 0.0 SW 3.2 0.0
01:10 3.7 91.0 1015.3 0.0 SW 3.2 0.0
01:15 3.7 91.0 1015.2 0.0 SW 1.6 0.0
01:20 3.7 91.0 1015.2 0.0 SW 4.8 0.0
01:25 3.7 91.0 1015.1 0.0 SW 4.8 0.0
01:30 3.6 91.0 1015.1 0.0 SW 3.2 0.0
01:30 3.6 91.0 1015.1 3.2 WSW 4.8 0.0
01:40 3.6 91.0 1015.1 0.0 W 4.8 0.0
01:45 3.6 91.0 1015.2 3.2 WSW 6.4 0.0
01:50 3.6 91.0 1015.2 0.0 SSW 6.4 0.0
01:55 3.6 92.0 1015.2 0.0 SSW 3.2 0.0
02:00 3.5 92.0 1015.2 0.0 SSW 3.2 0.0
02:05 3.5 92.0 1015.2 1.6 SSW 1.6 0.0
02:10 3.5 92.0 1015.1 1.6 SSW 3.2 0.0
02:15 3.5 92.0 1015.1 0.0 W 6.4 0.0
02:20 3.4 92.0 1015.1 0.0 SW 3.2 0.0
02:25 3.4 92.0 1015.1 0.0 SSW 6.4 0.0
02:30 3.4 92.0 1015.1 0.0 S 6.4 0.0
02:35 3.3 92.0 1015.0 0.0 SSW 3.2 0.0
02:40 3.3 91.0 1015.1 0.0 SSW 3.2 0.0
02:45 3.2 91.0 1014.9 0.0 SSW 0.0 0.0
02:50 3.2 91.0 1015.0 0.0 SSW 0.0 0.0
02:55 2.9 90.0 1015.0 0.0 SSW 0.0 0.0
03:00 2.8 90.0 1014.9 0.0 SSW 0.0 0.0
03:05 2.7 90.0 1014.9 3.2 W 4.8 0.0
03:10 2.5 90.0 1015.0 3.2 NW 4.8 0.0
03:15 2.4 90.0 1014.9 1.6 NW 4.8 0.0
03:15 2.3 90.0 1014.9 3.2 WNW 6.4 0.0
03:25 2.2 91.0 1014.9 3.2 WNW 4.8 0.0
03:30 2.2 91.0 1014.9 3.2 WNW 4.8 0.0
03:35 2.2 92.0 1014.8 4.8 WNW 4.8 0.0
03:40 2.2 92.0 1014.8 1.6 WNW 4.8 0.0
03:45 2.3 92.0 1014.8 1.6 WNW 3.2 0.0
03:50 2.2 92.0 1014.8 0.0 WNW 3.2 0.0
03:55 2.3 92.0 1014.8 0.0 WNW 0.0 0.0
04:00 2.3 92.0 1014.8 0.0 WNW 0.0 0.0
04:05 2.2 92.0 1014.8 0.0 WNW 0.0 0.0
04:10 2.2 92.0 1014.8 0.0 WNW 0.0 0.0
04:15 2.2 92.0 1014.8 0.0 WNW 0.0 0.0
04:20 2.2 92.0 1014.8 0.0 WNW 0.0 0.0
04:25 2.2 92.0 1014.8 0.0 WNW 0.0 0.0
04:30 2.2 92.0 1014.8 0.0 WNW 0.0 0.0
04:35 2.2 92.0 1014.8 0.0 WNW 0.0 0.0
04:40 2.3 92.0 1014.7 0.0 WNW 0.0 0.0
04:45 2.3 93.0 1014.7 0.0 WNW 0.0 0.0
04:50 2.3 93.0 1014.7 0.0 WNW 0.0 0.0
04:55 2.3 92.0 1014.7 0.0 WNW 0.0 0.0
05:00 2.3 92.0 1014.7 0.0 WNW 0.0 0.0
05:00 2.3 92.0 1014.6 0.0 WNW 0.0 0.0
05:10 2.2 92.0 1014.7 0.0 WNW 0.0 0.0
05:15 2.2 92.0 1014.7 0.0 WNW 0.0 0.0
05:20 2.1 92.0 1014.8 0.0 WNW 1.6 0.0
05:25 2.0 92.0 1014.6 1.6 WNW 1.6 0.0
05:30 1.9 91.0 1014.6 1.6 W 3.2 0.0
05:35 1.8 91.0 1014.6 0.0 W 3.2 0.0
05:40 1.7 91.0 1014.6 0.0 WNW 3.2 0.0
05:45 1.6 91.0 1014.7 0.0 ENE 3.2 0.0
05:50 1.5 91.0 1014.8 0.0 ENE 3.2 0.0
05:50 1.6 91.0 1014.6 0.0 E 8.0 0.0
05:55 1.5 91.0 1014.7 3.2 E 8.0 0.0
06:00 1.5 91.0 1014.7 0.0 ENE 4.8 0.0
Màxima 4.2 93.0 1015.5 4.8 WNW 9.7 0.0
Mínima 1.5 90.0 1014.6
Total 0.0